Location: Unspecified
(0.0000°N, 0.0000°E)
Time: 07:51:38
(UTC+00:00)

Tiros 1 despin weight - Pass Details

Date: 11 October 2023
Orbit: 583 x 627 km, 48.2° (Epoch: 05 December)

Event Time Altitude Azimuth Distance (km) Brightness Sun altitude
Rises 11:53:37 0° 215° (SW) 2,896 ? 82.8°
Reaches altitude 10° 11:55:56 10° 213° (SSW) 1,993 ? 82.6°
Maximum altitude 12:00:30 71° 129° (SE) 663 ? 82.2°
Drops below altitude 10° 12:05:05 10° 45° (NE) 1,995 ? 81.6°
Sets 12:07:24 0° 43° (NE) 2,898 ? 81.3°
